"Pseudo-MPEC" for MZ26372

Created 2026 Aug 13 0:35:07 UT using Find_Orb

Click here for an explanation of pseudo-MPECs

 
 Astrometry: 
     MZ26372*KB2026 08 11.79938 20 32 11.51 +19 07 22.9    ~8C2o 19.1 GXNEOCPN86
     MZ26372 KB2026 08 11.80301 20 32 14.01 +19 07 03.4    ~8C2o 18.8 GXNEOCPN86
     MZ26372 KB2026 08 11.80664 20 32 16.43 +19 06 45.1    ~8C2o 18.7 GXNEOCPN86
     MZ26372 KB2026 08 11.81024 20 32 18.95 +19 06 27.5    ~8C2o 19.3 GXNEOCPN86
     MZ26372 KB2026 08 12.69170 20 42 51.91 +17 51 36.5    ~8CL5 19.3 GXNEOCPN94
     MZ26372 KB2026 08 12.70369 20 43 00.01 +17 50 34.5    ~8CL5 19.4 GXNEOCPN94
     MZ26372 KB2026 08 12.71563 20 43 08.02 +17 49 32.6    ~8CL5 19.3 GXNEOCPN94
     MZ26372 KC2026 08 12.83859020 44 36.535+17 38 49.31   ~8CL5 18.7 GXNEOCPL18
     MZ26372 KC2026 08 12.84376520 44 39.996+17 38 22.02   ~8CL5 18.8 GXNEOCPL18
     MZ26372 KC2026 08 12.85395120 44 46.802+17 37 30.36   ~8CL5 18.7 GXNEOCPL18
     MZ26372 1C2026 08 12.85764820 44 49.98 +17 37 11.6    ~8CL5 19.3 GVNEOCPK88
     MZ26372 1C2026 08 12.85917820 44 51.01 +17 37 03.7    ~8CL5 19.3 GVNEOCPK88
     MZ26372 1C2026 08 12.86069220 44 52.03 +17 36 55.5    ~8CL5 19.7 GVNEOCPK88
     MZ26372 1C2026 08 12.88407020 45 08.377+17 34 48.40   ~8CLZ 19.6 GXNEOCP033
     MZ26372 1C2026 08 12.88432020 45 08.539+17 34 46.89   ~8CLZ 19.7 GXNEOCP033
     MZ26372 1C2026 08 12.88457020 45 08.698+17 34 45.60   ~8CLZ 20.0 GXNEOCP033
     MZ26372 1C2026 08 12.88482020 45 08.867+17 34 44.30   ~8CLZ 19.7 GXNEOCP033
     MZ26372 KB2026 08 12.92459620 45 35.875+17 31 30.70   ~8CMZ 19.75GXNEOCP126
     MZ26372 KB2026 08 12.92747520 45 38.83 +17 31 13.4    ~8CMZ 19.1 GXNEOCPI93
     MZ26372 KB2026 08 12.92881220 45 39.73 +17 31 06.4    ~8CMZ 19.1 GXNEOCPI93
     MZ26372 KB2026 08 12.93014920 45 40.62 +17 30 59.4    ~8CMZ       XNEOCPI93
     MZ26372 KB2026 08 12.93156420 45 40.573+17 30 54.25   ~8CMZ 19.81GXNEOCP126

Station data:
(033) Karl Schwarzschild Observatory, Tautenburg  (N50.980139 E11.711240)
   Germany.  Observer B. Stecklum. 1.34-m f/3 Schmidt + CCD.
(126) Monte Viseggi  (N44.132565 E9.790150)  Italy.
   Observers L. Sannino, A. Mancuso, S. Mercanti, D. Agnetti. Measurers L.
   Sannino, A. Mancuso. 0.41-m f/5.3 reflector + CCD.
(I93) St Pardon de Conques  (N44.558670 W0.202960)  France.  Observers F.
   Losse, W. D'Anna. Measurer F. Losse. 0.40-m f/3.7 reflector + CCD.
(K88) GINOP-KHK, Piszkéstető  (N47.917453 E19.893670)  Hungary.  Observer K.
   Sárneczky. 0.60-m Schmidt + CCD.
(L18) QOS Observatory, Zalistci  (N48.848292 E26.718280)  Ukraine.  Observers
   O. V. Kravchenko, Y. V. Tanasiychuk. Measurer A. M. Kozhukhov. 0.50-m
   f/3.8 reflector + CCD.
(N86) Xingming Observatory-KATS, Nanshan  (N43.473806 E87.178520)  China.
   Observers Observers X. Gao, Q.-Z. Ye. Measurer Q.-Z. Ye. 0.28-m f/2.2
   Schmidt.
(N94) Altay Astronomical Observatory  (N47.588446 E88.727920)  China.
   Observers X. Liao, D. Xu, X. Gao, M. Zhang, S.-Q. Jiang, X. Liu, J. An,
   W.-J. Zhou, Z.-S. Yang, G.-Y. Sun. Measurers X. Liao, M. Zhang, W.-J.
   Zhou, Z.-S. Yang, G.-Y. Sun. 1.00-m f/2.5 reflector + CMO.

Orbital elements:  MZ26372
   Perihelion 2026 Jul 30.071918 +/- 0.0756 TT =  1:43:33.7 (JD 2461251.571918)
Epoch 2026 Aug 12.0 TT = JDT 2461264.5   Earth MOID: 0.0734   Ma: 0.0949
M   4.632757764 +/- 0.10            (J2000 ecliptic)             AutoNEOCP
n   0.358348432 +/- 0.00792         Peri.  146.688883 +/- 0.14
a   1.963054587 +/- 0.0289          Node   158.094077 +/- 0.050
e   0.45815450 +/- 0.00764          Incl.    7.008611 +/- 0.08
P   2.75042                H 23.71  G  0.15   U  9.5
q 1.063672292 +/- 0.00068    Q 2.862436882 +/- 0.0571
From 22 observations 2026 Aug. 11-12 (27.2 hr); mean residual 0".29
Residuals in arcseconds: 
260811 N86  .11+  .59+    260812 L18  .01+  .48-    260812 033  .18-  .26-    
260811 N86  .33+  .51-    260812 L18  .60-  .49+    260812 126  .29-  .46+    
260811 N86  .61-  .40-    260812 K88  .11-  .15+    260812 I93  .06+  .13-    
260811 N86  .14+  .28+    260812 K88  .09-  .14+    260812 I93  .15+  .20-    
260812 N94  .15-  .25+    260812 K88  .06-  .24-    260812 I93  .11+  .26-    
260812 N94  .36+  .09+    260812 033  .04+  .04-    260812 126  .46+  .31+    
260812 N94  .17+  .06-    260812 033  .05-  .26-    
260812 L18  .33+  .11+    260812 033  .19-  .25-    

Ephemerides (geocentric):
Date (UTC) HH   RA             Dec           delta  r     elong  mag " sig PA
---- --------  ------------   ------------  ------ ------ -----  --- --------
2026 08 13 01  20 46 57.410   +17 22 10.18  .07374 1.0753 146.1 19.6 .848 156
2026 08 13 02  20 47 26.654   +17 18 31.36  .07375 1.0753 146.2 19.6 .840 155
2026 08 13 03  20 47 55.870   +17 14 52.23  .07376 1.0754 146.3 19.6 .830 155
2026 08 13 04  20 48 25.058   +17 11 12.81  .07378 1.0755 146.4 19.5 .819 154
2026 08 13 05  20 48 54.219   +17 07 33.08  .07379 1.0755 146.5 19.5 .807 153
2026 08 13 06  20 49 23.350   +17 03 53.06  .07381 1.0756 146.6 19.5 .793 153
2026 08 13 07  20 49 52.454   +17 00 12.76  .07383 1.0757 146.7 19.5 .777 152
2026 08 13 08  20 50 21.528   +16 56 32.16  .07384 1.0757 146.8 19.5 .760 151
2026 08 13 09  20 50 50.573   +16 52 51.29  .07386 1.0758 146.9 19.5 .742 151
2026 08 13 10  20 51 19.589   +16 49 10.13  .07388 1.0759 147.0 19.5 .722 151
2026 08 13 11  20 51 48.575   +16 45 28.71  .07389 1.0760 147.1 19.5 .700 150
2026 08 13 12  20 52 17.531   +16 41 47.02  .07391 1.0760 147.2 19.5 .677 150
2026 08 13 13  20 52 46.457   +16 38 05.06  .07393 1.0761 147.3 19.5 .653 149
2026 08 13 14  20 53 15.353   +16 34 22.84  .07395 1.0762 147.4 19.5 .626 149
2026 08 13 15  20 53 44.217   +16 30 40.36  .07397 1.0762 147.5 19.5 .599 149
2026 08 13 16  20 54 13.051   +16 26 57.64  .07399 1.0763 147.6 19.5 .569 149
2026 08 13 17  20 54 41.854   +16 23 14.66  .07401 1.0764 147.7 19.5 .538 149
2026 08 13 18  20 55 10.624   +16 19 31.45  .07403 1.0764 147.7 19.5 .506 148
2026 08 13 19  20 55 39.364   +16 15 47.99  .07405 1.0765 147.8 19.5 .472 148
2026 08 13 20  20 56 08.071   +16 12 04.30  .07407 1.0766 147.9 19.5 .436 149
2026 08 13 21  20 56 36.746   +16 08 20.37  .07409 1.0767 148.0 19.5 .398 149
2026 08 13 22  20 57 05.388   +16 04 36.23  .07412 1.0767 148.1 19.5 .360 149
2026 08 13 23  20 57 33.998   +16 00 51.85  .07414 1.0768 148.2 19.5 .319 150
2026 08 14 00  20 58 02.575   +15 57 07.26  .07416 1.0769 148.3 19.5 .277 151
2026 08 14 01  20 58 31.118   +15 53 22.46  .07419 1.0770 148.4 19.5 .234 152
2026 08 14 02  20 58 59.628   +15 49 37.45  .07421 1.0770 148.5 19.5 .189 155
2026 08 14 03  20 59 28.104   +15 45 52.23  .07423 1.0771 148.6 19.5 .143 159
2026 08 14 04  20 59 56.546   +15 42 06.81  .07426 1.0772 148.7 19.5 .098 168
2026 08 14 05  21 00 24.954   +15 38 21.20  .07429 1.0772 148.8 19.5 .058  11
2026 08 14 06  21 00 53.328   +15 34 35.39  .07431 1.0773 148.9 19.5 .048  69
2026 08 14 07  21 01 21.667   +15 30 49.39  .07434 1.0774 149.0 19.5 .083 107
2026 08 14 08  21 01 49.971   +15 27 03.21  .07436 1.0775 149.1 19.5 .133 120
2026 08 14 09  21 02 18.240   +15 23 16.85  .07439 1.0775 149.2 19.5 .188 125
2026 08 14 10  21 02 46.474   +15 19 30.31  .07442 1.0776 149.2 19.5 .246 128
2026 08 14 11  21 03 14.672   +15 15 43.61  .07445 1.0777 149.3 19.5 .306 130
2026 08 14 12  21 03 42.834   +15 11 56.73  .07447 1.0778 149.4 19.5 .367 131
2026 08 14 13  21 04 10.961   +15 08 09.70  .07450 1.0778 149.5 19.5 .430 132
2026 08 14 14  21 04 39.051   +15 04 22.50  .07453 1.0779 149.6 19.5 .496 133
2026 08 14 15  21 05 07.104   +15 00 35.16  .07456 1.0780 149.7 19.5 .562 133
2026 08 14 16  21 05 35.121   +14 56 47.66  .07459 1.0781 149.8 19.5 .631 134
2026 08 14 17  21 06 03.101   +14 53 00.01  .07462 1.0782 149.9 19.5 .701 134
2026 08 14 18  21 06 31.044   +14 49 12.23  .07465 1.0782 150.0 19.5 .772 134
2026 08 14 19  21 06 58.950   +14 45 24.30  .07469 1.0783 150.1 19.5 .846 134
2026 08 14 20  21 07 26.818   +14 41 36.25  .07472 1.0784 150.2 19.5 .921 134
2026 08 14 21  21 07 54.649   +14 37 48.06  .07475 1.0785 150.3 19.5 1.00 134
2026 08 14 22  21 08 22.441   +14 33 59.76  .07478 1.0785 150.4 19.5 1.08 134
2026 08 14 23  21 08 50.196   +14 30 11.33  .07481 1.0786 150.4 19.5 1.15 135
2026 08 15 00  21 09 17.912   +14 26 22.78  .07485 1.0787 150.5 19.5 1.24 135